TimePDT,TemperatureF,Dew PointF,Humidity,Sea Level PressureIn,VisibilityMPH,Wind Direction,Wind SpeedMPH,Gust SpeedMPH,PrecipitationIn,Events,Conditions,WindDirDegrees,DateUTC
12:53 AM,64.0,54.0,70,29.83,10.0,NW,6.9,-,N/A,,Clear,310,2013-09-16 07:53:00
1:53 AM,62.1,54.0,75,29.83,10.0,WNW,3.5,-,N/A,,Clear,300,2013-09-16 08:53:00
2:53 AM,60.1,53.1,78,29.83,10.0,NW,4.6,-,N/A,,Clear,310,2013-09-16 09:53:00
3:53 AM,57.9,51.1,78,29.83,10.0,Calm,Calm,-,N/A,,Clear,0,2013-09-16 10:53:00
4:53 AM,57.0,50.0,77,29.83,10.0,Calm,Calm,-,N/A,,Clear,0,2013-09-16 11:53:00
5:53 AM,55.9,51.1,84,29.84,10.0,Calm,Calm,-,N/A,,Clear,0,2013-09-16 12:53:00
6:53 AM,55.0,50.0,83,29.86,10.0,Calm,Calm,-,N/A,,Clear,0,2013-09-16 13:53:00
7:53 AM,57.9,50.0,75,29.87,10.0,Calm,Calm,-,N/A,,Clear,0,2013-09-16 14:53:00
8:53 AM,63.0,53.1,70,29.87,10.0,NNW,3.5,-,N/A,,Clear,340,2013-09-16 15:53:00
9:53 AM,69.1,54.0,58,29.87,10.0,NNW,9.2,-,N/A,,Clear,330,2013-09-16 16:53:00
10:53 AM,75.9,53.1,45,29.86,10.0,NNW,6.9,-,N/A,,Clear,330,2013-09-16 17:53:00
11:53 AM,82.0,51.1,34,29.84,10.0,Variable,5.8,-,N/A,,Clear,0,2013-09-16 18:53:00
12:53 PM,84.9,48.0,28,29.82,10.0,North,3.5,-,N/A,,Clear,360,2013-09-16 19:53:00
1:53 PM,88.0,46.9,24,29.79,10.0,NNW,5.8,-,N/A,,Clear,330,2013-09-16 20:53:00
2:53 PM,93.0,45.0,19,29.76,10.0,NW,5.8,-,N/A,,Clear,320,2013-09-16 21:53:00
3:53 PM,93.0,45.0,19,29.74,10.0,SSW,9.2,17.3,N/A,,Clear,210,2013-09-16 22:53:00
4:53 PM,88.0,46.9,24,29.73,10.0,SSW,16.1,-,N/A,,Clear,200,2013-09-16 23:53:00
5:53 PM,84.0,50.0,31,29.73,10.0,South,15.0,-,N/A,,Clear,190,2013-09-17 00:53:00
6:53 PM,78.1,48.9,36,29.75,10.0,SSW,10.4,18.4,N/A,,Clear,210,2013-09-17 01:53:00
7:53 PM,73.0,50.0,44,29.78,10.0,WNW,9.2,-,N/A,,Clear,290,2013-09-17 02:53:00
8:53 PM,70.0,50.0,49,29.80,10.0,NW,12.7,-,N/A,,Clear,310,2013-09-17 03:53:00
9:53 PM,68.0,50.0,52,29.81,10.0,WNW,11.5,-,N/A,,Clear,300,2013-09-17 04:53:00
10:53 PM,66.0,51.1,59,29.82,10.0,WNW,10.4,-,N/A,,Clear,300,2013-09-17 05:53:00
11:53 PM,64.0,51.1,63,29.81,10.0,NW,10.4,-,N/A,,Clear,310,2013-09-17 06:53:00